STARLINK-5012, 53918

Orbit data source: Space-Track

STARLINK-5012, 53918 is a payload satellite owned by SpaceX/Seattle (US) in LEO that was launched on Sat, 24 Sep 2022 UTC via an FALCON 9 launch vehicle from the Air Force Eastern Test Range (AFETR). Payload-class satellites include a variety of spacecraft equipped with specific instruments for various scientific and technological missions. These include communications satellites like Starlink; space stations such as the ISS; scientific satellites like the Hubble; Earth observation satellites from companies like Planet Labs, Umbra, and HawkEye 360; GPS; miniature CubeSats for education and research; and military/defense satellites.

Loading next visibility...
Identifier
53918, 2022-119AJ
Orbit
LEO
Country
Flag of USUS
Related business
Manufacturer
SpaceX/Seattle
Mission
Operational Commercial Communications
Bus & Motor
STARLINK, Unknown motor
Mass
305 kg wet, ~290 kg dry
Launch date (UTC)
2022-09-24 (4 years ago)
Launch vehicle
FALCON 9
Launch site
Air Force Eastern Test Range (AFETR)
Object type
Payload
Rocket body
Debris
Shape & HBR
Box + 1 Pan, 10.1 m
Radar Cross Section
13.562 m², Large (>1 m²)

Expand to show TLE details & history
Last TLE update: 2 days ago

TLE from 2 days ago
0 STARLINK-5012
1 53918U 22119AJ  26171.41116755 -.00000065  00000-0  14005-4 0  9994
2 53918  53.1586 212.7758 0000832  78.4885 281.6200 15.08828753207332
Epoch: 2026-06-20T09:52Z
TLE epoch observation values (Epoch: 2026-06-20T09:52:04.876Z)
Latitude
Longitude
156.12931°
Altitude
540.553 km
Speed
7.593 km/s
True Right ascension
14h 11m 06s
True Declination
0° 00' 00"
Sunlit
Object was in full shadow at epoch
Visualization orbit readout
Latitude
Unknown
Longitude
Unknown
Altitude
Unknown
Speed
Unknown
Apparent Right ascension
Unknown
Apparent Declination
Unknown
Sunlit
N/A
Visualization observer readout
Local Sidereal Time
21:32:31
Azimuth
Unknown
Elevation
Unknown
Doppler factor
Unknown
Orbital elements
Apogee altitude
540.608 km
Perigee altitude
539.457 km
Semi-major axis
6,918.169 km
Eccentricity
0.00008
Inclination
53.1586°
RAAN
212.7758°
Arg. of periapsis
78.4885°
True anomaly
281.61066°
Mean anomaly
281.62°
Eccentric anomaly
281.61533°
Mean motion
3.77187 °/min
Orbital period
95.44 mins
BSTAR
0.000014005
Loading maneuver chart data...
Computing Atmospheric mass density...
Loading historical data...
Loading historical data...
Loading historical data...
Loading historical data...
Loading historical data...
Loading historical data...
Loading historical data...

Documentation

Showing up to 5 results
|